Regional Weather Roundup
Issued by NWS Boston, MA

Current Version | Previous Version | Text Only | Print | Product List | Glossary Off
Versions: 1 2 3 4 5 6 7 8 9 10 11 12 13 14 15 16 17 18 19 20 21 22 23 24 25 26 27 28 29 30 31 32 33 34 35 36 37 38 39 40 41 42 43 44 45 46 47 48 49 50
000 ASUS41 KBOX 220410 RWRBOX REGIONAL WEATHER ROUNDUP NATIONAL WEATHER SERVICE TAUNTON MA 1200 AM EDT FRI SEP 22 2017 NOTE: "FAIR" INDICATES FEW OR NO CLOUDS BELOW 12,000 FEET WITH NO SIGNIFICANT WEATHER AND/OR OBSTRUCTIONS TO VISIBILITY. MAZALL-220500- EASTERN MASSACHUSETTS CITY SKY/WX TMP DP RH WIND PRES REMARKS BOSTON CLOUDY 65 53 65 N22G31 30.02F BEVERLY CLOUDY 65 53 65 N16G32 30.03F LAWRENCE CLOUDY 65 54 67 N9 30.08S BEDFORD CLOUDY 64 50 60 N10G22 30.04F BLUE HILL N/A 63 51 65 NE23G36 30.00F NORWOOD CLOUDY 68 52 56 NE14G25 30.01S MARSHFIELD CLOUDY 64 57 77 N10G28 29.97F PLYMOUTH RAIN 63 55 75 N21G35 29.96S TAUNTON CLOUDY 65 54 67 N13G24 29.96F NEW BEDFORD LGT RAIN 63 55 75 N15G37 29.92F $$ MAZALL-220500- CAPE COD AND THE ISLANDS CITY SKY/WX TMP DP RH WIND PRES REMARKS FALMOUTH LGT RAIN 59 57 94 NE21G32 29.90F HYANNIS LGT RAIN 60 58 92 N22G32 29.85S FOG CHATHAM NOT AVBL PROVINCETOWN LGT RAIN 59 57 93 NE25G39 29.93S FOG NANTUCKET HVY RAIN 60 60 100 N32G45 29.78S FOG MARTHAS VNYRD HVY RAIN 61 57 87 N24G41 29.86S FOG $$ MAZALL-220500- CENTRAL AND WESTERN MASSACHUSETTS CITY SKY/WX TMP DP RH WIND PRES REMARKS WORCESTER CLOUDY 62 46 55 N18G26 30.05F FITCHBURG CLOUDY 65 49 56 N9 30.08S ORANGE MOCLDY 65 48 54 NE13G21 30.07F SPRINGFIELD CLOUDY 67 47 50 NE14 30.03F WESTFIELD CLOUDY 62 52 69 N8 30.06S NORTH ADAMS CLOUDY 58 55 90 CALM 30.10F PITTSFIELD CLOUDY 62 51 67 NE6 30.09F $$ RIZALL-220500- RHODE ISLAND CITY SKY/WX TMP DP RH WIND PRES REMARKS PROVIDENCE CLOUDY 66 54 65 N31G41 29.98S NEWPORT MOCLDY 64 56 75 N24G40 29.92F BLOCK ISLAND LGT RAIN 64 56 75 N24G36 29.91F SMITHFIELD CLOUDY 64 52 64 NE16G23 30.00F WESTERLY CLOUDY 68 52 56 N21G33 29.95S $$ CTZALL-220500- CONNECTICUT CITY SKY/WX TMP DP RH WIND PRES REMARKS BRADLEY INTL CLOUDY 67 49 52 N12 30.04F HARTFORD CLOUDY 68 50 52 N13G22 30.02F BRIDGEPORT CLOUDY 70 50 49 NE14G22 30.01S DANBURY MOCLDY 69 51 52 NE10 30.05F GROTON MOCLDY 68 49 50 N14 29.95S NEW HAVEN CLOUDY 69 50 50 N13G20 30.00F CHESTER FAIR 68 50 52 N10G23 29.99F MERIDEN CLOUDY 68 49 50 N9 30.01F WILLIMANTIC CLOUDY 68 49 50 N17 30.01F OXFORD CLOUDY 65 50 58 N15 30.04F $$ MEZ002-015-021-024-NHZ003-005-008-011-012-014-VTZ005-008-220500- NORTHERN NEW ENGLAND CITY SKY/WX TMP DP RH WIND PRES REMARKS PORTLAND ME MOCLDY 62 48 60 NE7 30.11S BANGOR ME CLOUDY 59 47 64 NE10 30.16F CONCORD NH CLOUDY 63 49 60 N5 30.10F MANCHESTER NH CLOUDY 66 47 50 N10 30.07S NASHUA NH CLOUDY 65 50 58 N6 30.08F PORTSMOUTH NH CLOUDY 65 49 55 NE12 30.06F JAFFREY NH CLOUDY 61 51 70 VRB5 30.11F KEENE NH CLOUDY 62 50 64 N5 30.10S BURLINGTON VT CLEAR 59 56 89 NE3 30.14R MT. WASHINGTON NOT AVBL $$ NYZ052-076-220500- EASTERN NEW YORK CITY SKY/WX TMP DP RH WIND PRES REMARKS ALBANY CLOUDY 66 55 67 N6 30.10S NEW YORK CITY CLOUDY 73 60 63 N9 30.00F $$ ANZALL-220500- MARINE OBSERVATIONS STATION/POSITION TIME TEMP WIND PRES VSBY WAVE AIR SEA DIR/SP/G HT/PER (UTC) (F) (DEG/KT/KT) (MB) (MI) (FT/S) BOSTON BUOY 0350 63 60 20/ 25/ 31 1014.7F 12/ 9 BUZZARDS BAY 0400 61 20/ 46/ 51 1010.0F NANTUCKET SOUND 0350 60 60 20/ 31/ 39 1008.8R 7/ 6 MASS BAY-STELLWA 0304 63 61 20/ 23/ 27 1015.2F 13/11 ISLE OF SHOALS 0400 63 20/ 24/ 27 1017.2F S OF BLOCK IS NOT AVBL $$ ......................KEY......................... SKY/WX - SKY CONDITION/PRESENT WEATHER TMP - TEMPERATURE IN FAHRENHEIT DWPT - DEWPOINT IN FAHRENHEIT RH - RELATIVE HUMIDITY IN PERCENT WIND - DIRECTION AND SPEED IN MPH PRES - MEAN SEA LEVEL PRESSURE IN INCHES OF HG WCI - WIND CHILL INDEX VSB - VISIBILITY IN MILES HX - HEAT INDEX TC - TEMPERATURE IN CELSIUS VRB - VARIABLE WIND DIRECTION N/A - NOT AVAILABLE

USA.gov is the U.S. government's official web portal to all federal, state and local government web resources and services.